SL-16 DEB, 44574

Orbit data source: Space-Track

SL-16 DEB, 44574 is space debris in LEO originally from a launch on Fri, 25 Dec 1992 UTC launched from the Tyuratam Missile And Space Complex (TTMTR). Debris objects in space refer to the collection of defunct objects orbiting the Earth. Examples of debris include non-operational satellites, rocket bodies, and fragments generated from explosions, collisions, or faulty payload assembly.

Loading next visibility...
SL-16 DEB details
Identifier
44574, 1992-093LW
Orbit
LEO
Last TLE update17 hours ago
Origin
Flag of CISRVSN RF (CIS)
ManufacturerUnknown
MissionSpacecraft
Bus & MotorUnknown
MassUnknown
Launch date (UTC)
1992-12-25 (32 years ago)
Launch vehicleUnknown
Launch site
Tyuratam Missile And Space Complex (TTMTR)
Object type
Payload
Rocket body
Debris
Shape & HBRUnknown
Radar Cross SectionSmall (<0.1 m²)

Expand to show TLE details & history

TLE from 17 hours ago
0 SL-16 DEB
1 44574U 92093LW  24361.03477257  .00015916  00000-0  46086-2 0  9996
2 44574  71.1225 194.1487 0097343 156.3965  11.5191 14.41755283576847
Epoch: 2024-12-26T00:50Z
Definitive object data (Epoch: 2024-12-26T00:50:04.35Z)
Latitude11.17425°
Longitude-97.24148°
Altitude686.386 km
Speed7.55 km/s
True Right ascension00h 41m 11s
True Declination11° 06' 30"
Sunlit
Object was in daylight at TLE epoch
Visualization TLE readout
Latitude-24.14069°
Longitude-86.14961°
Altitude716.238 km
Speed7.52 km/s
Apparent Right ascension02h 57m 25s
Apparent Declination-34° 23' 56"
Sunlit
Object is in daylight
Visualization observer readout
Local Sidereal Time17:01:41
Azimuth87.281° E
Elevation-64.771°
Doppler factor1
Orbital elements
Apogee altitude819.984 km
Perigee altitude681.198 km
Semi-major axis7,128.728 km
Eccentricity0.0097343
Inclination71.1225°
RAAN194.1487°
Arg. of periapsis156.3965°
True anomaly11.74454°
Mean anomaly11.5191°
Eccentric anomaly11.63155°
Mean motion3.60599 °/min
BSTAR0.0046086
Orbital period99.83 mins
Loading maneuver chart data...
Loading historical data...
Loading historical data...
Loading historical data...
Loading historical data...
Loading historical data...
Loading historical data...
Loading historical data...

SL-16 DEB Visibility forecast

Observer location: undefined°, undefined

Span
Click to sort rows by Start time (UTC) header in descending order
Start Az.
Max El. time (UTC)
Max El. Az.
Max El.
End time (UTC)
End Az.
9 mins2024-12-26 23:55:18.857Z344.344° N2024-12-27 00:00:18.857Z84.469° E40.43°2024-12-27 00:04:18.857Z144.165° SSE
8 mins2024-12-27 14:30:18.857Z211.677° SW2024-12-27 14:33:18.857Z256.785° W43.262°2024-12-27 14:38:18.857Z18.508° NNE
|